Regional Weather Roundup
Issued by NWS

Home | Current Version | Previous Version | Text Only | Print | Product List | Glossary Off
Versions: 1 2 3 4 5 6 7 8 9 10 11 12 13 14 15 16 17 18 19 20 21 22 23 24 25 26 27 28 29 30 31 32 33 34 35 36 37 38 39 40 41 42 43 44 45 46 47 48 49 50

000
ASUS45 KCYS 190610
RWRWY

WYOMING REGIONAL WEATHER ROUNDUP
NATIONAL WEATHER SERVICE CHEYENNE WY
1100 PM MST THU DEC 18 2014

NOTE:  "FAIR" INDICATES FEW OR NO CLOUDS BELOW 12,000 FEET
WITH NO SIGNIFICANT WEATHER AND/OR OBSTRUCTIONS TO VISIBILITY.

WYZ001-190700-
YELLOWSTONE NATIONAL PARK

CITY           SKY/WX    TMP DP  RH WIND       PRES   REMARKS
LK YELLOWSTONE   N/A     23  18  81 CALM      30.08R
6HR MIN TEMP:  22; 6HR MAX TEMP:  23;

W YELLOWSTONE  NOT AVBL

$$
WYZ002>013-054>058-071-098>099-190700-
NORTHERN WYOMING

CITY           SKY/WX    TMP DP  RH WIND       PRES   REMARKS
JACKSON        CLOUDY    25  25 100 CALM      30.11S
CODY           FAIR      36  18  48 W14G23    30.00R WCI  27
GREYBULL       FAIR      12   9  87 W5        30.08R WCI   4
6HR MIN TEMP:  11; 6HR MAX TEMP:  24;

WORLAND        FAIR       7   3  84 S3        30.07R
6HR MIN TEMP:   4; 6HR MAX TEMP:  16;

SHERIDAN       FAIR      22  11  62 CALM      29.98R
6HR MIN TEMP:  18; 6HR MAX TEMP:  32;

BUFFALO        FAIR      26  12  55 W7        29.99R WCI  18
6HR MIN TEMP:  24; 6HR MAX TEMP:  34;

GILLETTE       FAIR      28  16  60 SW13      29.99S WCI  17
6HR MIN TEMP:  28; 6HR MAX TEMP:  31;

HULETT           N/A    N/A N/A N/A MISG        N/A
NEWCASTLE      FAIR      25  21  86 SE7       30.06R WCI  17

$$
WYZ014>020-022>026-101>103-190700-
CENTRAL WYOMING

CITY           SKY/WX    TMP DP  RH WIND       PRES   REMARKS
BIG PINEY      FAIR      12   8  84 CALM      30.13R
6HR MIN TEMP:  10; 6HR MAX TEMP:  25;

PINEDALE       CLOUDY    16  14  93 NW5       30.13S WCI   9
DUBOIS         CLOUDY    25  14  63 NW7       30.06R WCI  17
LANDER         FAIR       3   0  87 W7        30.07R FOG     WCI  -9
6HR MIN TEMP:   1; 6HR MAX TEMP:   9;

RIVERTON       FOG       10   6  84 E5        30.08S VSB 1/4 WCI   2
6HR MIN TEMP:   8; 6HR MAX TEMP:  13;

CASPER         FAIR      23  16  74 SW16G22   30.05S WCI  10
6HR MIN TEMP:  18; 6HR MAX TEMP:  24;

DOUGLAS        FAIR      13  10  88 CALM      30.06R
6HR MIN TEMP:  12; 6HR MAX TEMP:  29;


$$
WYZ021-027>030-104>119-190700-
SOUTHERN WYOMING

CITY           SKY/WX    TMP DP  RH WIND       PRES   REMARKS
EVANSTON       FAIR      20  19  96 SW8       30.15R WCI  10
6HR MIN TEMP:  20; 6HR MAX TEMP:  27;

KEMMERER       FAIR      23  21  93 W10       30.13R WCI  12
FORT BRIDGER   FAIR      24  21  89 SW9       30.17R WCI  14
ROCK SPRINGS   FAIR      22  17  81 W14       30.13S WCI   9
6HR MIN TEMP:  21; 6HR MAX TEMP:  27;

DIXON          CLOUDY   N/A N/A N/A CALM      30.19S HAZE
RAWLINS        FAIR      22  17  81 W12       30.11R WCI  10
6HR MIN TEMP:  18; 6HR MAX TEMP:  23;

SARATOGA       CLOUDY    19  16  86 E3        30.14R
LARAMIE        FAIR      10   6  84 W7        30.07R WCI  -1
6HR MIN TEMP:   8; 6HR MAX TEMP:  22;

CHEYENNE       FAIR      26  13  57 W9        30.07S WCI  17
6HR MIN TEMP:  26; 6HR MAX TEMP:  32;

TORRINGTON     FAIR     N/A N/A N/A S5        30.07R
PINE BLUFFS    FAIR      25  19  80 W7        30.10R WCI  17

$$



USA.gov is the U.S. government's official web portal to all federal, state and local government web resources and services.